METEOR PRIRODA

Last updated on Thu Oct 30 2025 00:02:14 GMT+0000 (Coordinated Universal Time)

1 12585U 81065A 25302.47971037 .00319424 43593-4 71483-3 0 9998 2 12585 97.4630 5.4236 0001115 335.6784 24.4440 15.97788798423709
UTC large
Height (km)
Speed (km/s)
/
Latitude / Longitude
Inclination (degrees)
Orbital Period (minutes)
Azimuth
Elevation
Range (km)
Doppler Factor

Next 0 passes for location: London (51.5072 / 0.1276)

Sorry there are no passes over London.